Location: ??????
(42.0089°N, 44.3281°E)
Time: 12:12:38
(UTC+00:00)

SL-8 R/B - Pass Details

Date: 24 October 2021
Orbit: 656 x 667 km, 48.4° (Epoch: 07 December)

Event Time Altitude Azimuth Distance (km) Brightness Sun altitude
Rises 14:27:40 0° 259° (WSW) 2,976 10.3 -4.5°
Reaches altitude 10° 14:30:04 10° 264° (W) 2,067 8.2 -4.9°
Maximum altitude 14:34:44 54° 341° (NNW) 805 4.2 -5.8°
Drops below altitude 10° 14:39:26 10° 59° (ENE) 2,079 5.7 -6.6°
Enters shadow 14:40:08 - 61° (ENE) 2,339 5.9 -6.7°
